Regional Weather Roundup
Issued by NWS

Home | Current Version | Previous Version | Text Only | Print | Product List | Glossary Off
Versions: 1 2 3 4 5 6 7 8 9 10 11 12 13 14 15 16 17 18 19 20 21 22 23 24 25 26 27 28 29 30 31 32 33 34 35 36 37 38 39 40 41 42 43 44 45 46 47 48 49 50

871
ASUS43 KDMX 221501
RWRIA

WEATHER ROUNDUP FOR IOWA
NATIONAL WEATHER SERVICE DES MOINES IA
1000 AM CDT WED MAR 22 2017

NOTE: "FAIR" INDICATES FEW OR NO CLOUDS BELOW 12,000 FEET WITH NO
SIGNIFICANT WEATHER AND/OR OBSTRUCTIONS TO VISIBILITY.

* - THESE STATIONS ARE NOT NWS STATIONS...THUS NOT UNDER NWS
QUALITY CONTROL.  THEY ALSO DO NOT REPORT WEATHER SUCH
AS PRECIPITATION OR FOG.

IAZ001>003-012>014-020>022-031>034-043>046-221600-
   NORTHWEST IOWA

CITY           SKY/WX    TMP DP  RH WIND       PRES   REMARKS
CARROLL *      CLOUDY    32  21  64 SE18      30.44F WCI  20
DENISON *      CLOUDY    32  19  59 SE10G21   30.42R WCI  24
LE MARS *      CLOUDY    30  18  59 SE12      30.44S WCI  21
ORANGE CITY *  CLOUDY    28  18  64 SE13      30.42F WCI  18
SHELDON *      CLOUDY    28  21  74 SE18      30.41F WCI  16
SIOUX CITY     CLOUDY    31  19  61 SE14      30.43S WCI  21
SPENCER        CLOUDY    29  18  63 SE16      30.46R WCI  17
STORM LAKE *   CLOUDY    30  19  64 SE16G22   30.43R WCI  19
$$

IAZ055>058-069>071-079>083-090>094-221600-
   SOUTHWEST IOWA

CITY           SKY/WX    TMP DP  RH WIND       PRES   REMARKS
ATLANTIC *     CLOUDY    32  21  64 E15       30.43S WCI  22
AUDUBON *      CLOUDY    32  25  74 SE15      30.44F WCI  22
CLARINDA *     CLOUDY    34  23  64 E10       30.45S WCI  26
COUNCIL BLFS * MIX PCPN  32  25  74 SE9       30.41S WCI  24
CRESTON *      CLOUDY    34  23  64 SE17G23   30.44S WCI  23
HARLAN  *      CLOUDY    32  21  64 SE12G17   30.47R WCI  23
LAMONI         CLOUDY    35  25  66 E10G17    30.43S WCI  27
RED OAK *      CLOUDY    34  21  60 E13       30.43S WCI  25
SHENANDOAH *   CLOUDY    34  23  64 E14       30.42S WCI  24
$$

IAZ047>049-059>061-072>074-084-221600-
   CENTRAL IOWA

CITY           SKY/WX    TMP DP  RH WIND       PRES   REMARKS
AMES           SUNNY     34  23  64 SE15      30.50S WCI  24
ANKENY *       MOSUNNY   34  23  64 SE20G29   30.50S WCI  22
BOONE *        SUNNY     34  21  60 SE22G30   30.47R WCI  22
CHARITON *     CLOUDY    34  27  75 SE16G23   30.47R WCI  23
DES MOINES     PTSUNNY   34  23  64 SE14G22   30.49S WCI  25
GRINNELL*      MOSUNNY   32  23  68 E16G24    30.52R WCI  21
MARSHALLTOWN   MOSUNNY   32  20  61 E14       30.50S WCI  22
NEWTON *       SUNNY     32  21  64 SE17G23   30.50R WCI  21
PELLA *        MOSUNNY   33  24  68 SE18      30.51S WCI  22
PERRY *          N/A     33  21  60 SE18      30.47F WCI  22
$$

IAZ004>006-015-016-023>025-035-036-221600-
   NORTH CENTRAL IOWA

CITY           SKY/WX    TMP DP  RH WIND       PRES   REMARKS
ALGONA *       CLOUDY    30  19  64 SE21      30.47S WCI  17
CLARION *      CLOUDY    32  19  59 SE17G25   30.49R WCI  21
ESTHERVILLE    CLOUDY    27  19  72 SE20      30.46S WCI  13
FORT DODGE *   CLOUDY    32  19  59 SE15G21   30.48S WCI  22
MASON CITY     SUNNY     28  15  58 SE16      30.52R WCI  16
WEBSTER CITY * CLOUDY    32  19  59 SE21      30.46S WCI  20
IOWA FALLS *   PTSUNNY   32  20  61 E16       30.51S WCI  21
$$

IAZ007>011-017>019-026>030-037>042-050>054-066-221600-
   NORTHEAST IOWA

CITY           SKY/WX    TMP DP  RH WIND       PRES   REMARKS
CEDAR RAPIDS   SUNNY     32  20  61 E16       30.53R WCI  21
CHARLES CITY * SUNNY     28  12  50 SE16      30.53R WCI  17
CLINTON *      SUNNY     30  18  60 E15       30.58R WCI  19
DECORAH *      SUNNY     27   9  46 SE8G16    30.56R WCI  18
DUBUQUE        SUNNY     27  13  55 E12       30.56R WCI  17
MONTICELLO *   SUNNY     30  16  55 E14       30.55S WCI  20
OELWEIN *      SUNNY     28  16  59 E16       30.54R WCI  17
WATERLOO       SUNNY     30  16  56 SE13      30.54R WCI  20
$$

IAZ064-065-067-068-078-221600-
   EAST CENTRAL IOWA

CITY           SKY/WX    TMP DP  RH WIND       PRES   REMARKS
DAVENPORT      SUNNY     32  17  54 E15       30.56S WCI  22
IOWA CITY      CLOUDY    33  21  61 E12       30.56S WCI  24
MUSCATINE *    SUNNY     34  16  47 E14       30.56S WCI  24
QUAD CITIES    SUNNY     33  17  51 E17       30.56S WCI  22
$$

IAZ062-063-075>077-085>089-095>099-221600-
   SOUTHEAST IOWA

CITY           SKY/WX    TMP DP  RH WIND       PRES   REMARKS
BURLINGTON     PTSUNNY   34  25  69 E14       30.53R WCI  25
FAIRFIELD *    MOSUNNY   34  23  64 E16G23    30.52S WCI  23
FORT MADISON * PTSUNNY   37  27  65 E13       30.53S WCI  29
KEOKUK *       CLOUDY    36  25  64 E14       30.52R WCI  27
OSKALOOSA *      N/A     33  25  71 SE18G24   30.51S WCI  22
OTTUMWA        MOSUNNY   35  25  66 SE17      30.50S WCI  25
WASHINGTON *   MOSUNNY   34  21  60 E18       30.54S WCI  23
$$

ABBREVIATIONS USED IN REMARKS
   TC - TEMPERATURES IN CELSIUS
  WCI - WIND CHILL INDEX
   HX - HEAT INDEX
  VSB - VISIBILITY
$$





USA.gov is the U.S. government's official web portal to all federal, state and local government web resources and services.